| time (UTC) | temp F | wind direction | speed MPH | gust MPH | rain 1hr in | rain 24hr in | rain mn in | humidity % | barometer mb |
| 20260507003513 | 57 | 158 | 3.0 | 5.0 | 0.00 | 0.00 | 0.00 | 84 | 1019.2 |
| 20260507003008 | 57 | 249 | 5.0 | 6.0 | 0.00 | 0.00 | 0.00 | 83 | 1019.1 |
| 20260507002505 | 57 | 257 | 1.0 | 2.0 | 0.00 | 0.00 | 0.00 | 83 | 1019.4 |
| 20260507002001 | 57 | 256 | 3.0 | 3.0 | 0.00 | 0.00 | 0.00 | 85 | 1019.2 |
| 20260507001458 | 57 | 243 | 4.0 | 5.0 | 0.00 | 0.00 | 0.00 | 84 | 1018.9 |
| 20260507000955 | 57 | 308 | 1.0 | 1.0 | 0.00 | 0.00 | 0.00 | 85 | 1019.0 |
| 20260507000451 | 57 | 31 | 0.0 | 1.0 | 0.00 | 0.00 | 0.00 | 86 | 1019.2 |
| 20260506235946 | 57 | 286 | 2.0 | 3.0 | 0.00 | 0.00 | 0.00 | 84 | 1019.2 |
| 20260506235444 | 56 | 17 | 1.0 | 1.0 | 0.00 | 0.00 | 0.00 | 85 | 1019.1 |
| 20260506234940 | 57 | 160 | 3.0 | 3.0 | 0.00 | 0.00 | 0.00 | 85 | 1019.1 |
| 20260506234438 | 56 | 33 | 0.0 | 1.0 | 0.00 | 0.00 | 0.00 | 85 | 1019.2 |
| 20260506233935 | 56 | 236 | 5.0 | 6.0 | 0.00 | 0.00 | 0.00 | 86 | 1019.1 |
| 20260506233431 | 56 | 38 | 2.0 | 3.0 | 0.00 | 0.00 | 0.00 | 85 | 1019.5 |
| 20260506232928 | 56 | 140 | 2.0 | 3.0 | 0.00 | 0.00 | 0.00 | 85 | 1019.3 |
| 20260506232424 | 56 | 288 | 2.0 | 2.0 | 0.00 | 0.00 | 0.00 | 85 | 1019.3 |
| 20260506231920 | 56 | 231 | 5.0 | 6.0 | 0.00 | 0.00 | 0.00 | 84 | 1019.1 |
| 20260506231418 | 56 | 311 | 1.0 | 1.0 | 0.00 | 0.00 | 0.00 | 85 | 1019.4 |
| 20260506230915 | 56 | 248 | 3.0 | 5.0 | 0.00 | 0.00 | 0.00 | 85 | 1019.5 |
| 20260506230411 | 56 | 108 | 2.0 | 2.0 | 0.00 | 0.00 | 0.00 | 86 | 1019.5 |
| 20260506225908 | 56 | 51 | 5.0 | 6.0 | 0.00 | 0.00 | 0.00 | 86 | 1019.4 |
| 20260506225405 | 56 | 269 | 2.0 | 2.0 | 0.00 | 0.00 | 0.00 | 86 | 1019.3 |
| 20260506224902 | 56 | 269 | 2.0 | 2.0 | 0.00 | 0.00 | 0.00 | 85 | 1019.5 |
| 20260506224400 | 56 | 40 | 2.0 | 5.0 | 0.00 | 0.00 | 0.00 | 86 | 1019.4 |
| 20260506223855 | 55 | 256 | 4.0 | 6.0 | 0.00 | 0.00 | 0.00 | 86 | 1019.5 |
| 20260506223351 | 56 | 127 | 2.0 | 2.0 | 0.00 | 0.00 | 0.00 | 85 | 1019.5 |
| 20260506222848 | 57 | 47 | 1.0 | 2.0 | 0.00 | 0.00 | 0.00 | 84 | 1019.5 |
| 20260506222344 | 56 | 260 | 1.0 | 1.0 | 0.00 | 0.00 | 0.00 | 85 | 1019.3 |
| 20260506221842 | 56 | 338 | 2.0 | 2.0 | 0.00 | 0.00 | 0.00 | 85 | 1019.6 |
| 20260506221339 | 55 | 243 | 7.0 | 8.0 | 0.00 | 0.00 | 0.00 | 85 | 1019.7 |
| 20260506220837 | 55 | 242 | 3.0 | 5.0 | 0.00 | 0.00 | 0.00 | 86 | 1019.6 |
| 20260506220332 | 55 | 230 | 3.0 | 3.0 | 0.00 | 0.00 | 0.00 | 85 | 1019.5 |
| 20260506215829 | 55 | 251 | 3.0 | 3.0 | 0.00 | 0.00 | 0.00 | 86 | 1019.6 |
| 20260506215325 | 55 | 37 | 2.0 | 3.0 | 0.00 | 0.00 | 0.00 | 85 | 1019.9 |
| 20260506214821 | 56 | 344 | 1.0 | 1.0 | 0.00 | 0.00 | 0.00 | 85 | 1019.7 |
| 20260506214317 | 55 | 222 | 4.0 | 6.0 | 0.00 | 0.00 | 0.00 | 85 | 1019.6 |
| 20260506213816 | 55 | 193 | 3.0 | 3.0 | 0.00 | 0.00 | 0.00 | 85 | 1019.6 |
| 20260506213313 | 55 | 243 | 6.0 | 7.0 | 0.00 | 0.00 | 0.00 | 86 | 1019.6 |
| 20260506212810 | 55 | 13 | 2.0 | 3.0 | 0.00 | 0.00 | 0.00 | 85 | 1019.6 |
| 20260506212307 | 55 | 248 | 5.0 | 5.0 | 0.00 | 0.00 | 0.00 | 85 | 1019.6 |
| 20260506211801 | 55 | 192 | 4.0 | 6.0 | 0.00 | 0.00 | 0.00 | 85 | 1019.7 |
| 20260506211257 | 55 | 345 | 1.0 | 2.0 | 0.00 | 0.00 | 0.00 | 85 | 1019.7 |
| 20260506210755 | 55 | 60 | 3.0 | 3.0 | 0.00 | 0.00 | 0.00 | 84 | 1019.7 |
| 20260506210251 | 55 | 0 | 2.0 | 2.0 | 0.00 | 0.00 | 0.00 | 85 | 1019.7 |
| 20260506205748 | 55 | 349 | 3.0 | 5.0 | 0.00 | 0.00 | 0.00 | 85 | 1019.7 |
| 20260506205244 | 55 | 201 | 2.0 | 3.0 | 0.00 | 0.00 | 0.00 | 85 | 1019.5 |
| 20260506204741 | 55 | 324 | 5.0 | 7.0 | 0.00 | 0.00 | 0.00 | 83 | 1019.5 |
| 20260506204239 | 55 | 0 | 0.0 | 1.0 | 0.00 | 0.00 | 0.00 | 85 | 1019.8 |
| 20260506203736 | 55 | 117 | 2.0 | 3.0 | 0.00 | 0.00 | 0.00 | 85 | 1019.6 |
| 20260506203233 | 55 | 234 | 3.0 | 3.0 | 0.00 | 0.00 | 0.00 | 84 | 1019.4 |
| 20260506202731 | 55 | 262 | 4.0 | 6.0 | 0.00 | 0.00 | 0.00 | 84 | 1019.4 |
| 20260506202227 | 54 | 352 | 1.0 | 2.0 | 0.00 | 0.00 | 0.00 | 85 | 1019.5 |
| 20260506201724 | 55 | 197 | 4.0 | 6.0 | 0.00 | 0.00 | 0.00 | 84 | 1019.5 |
| 20260506201220 | 55 | 29 | 1.0 | 1.0 | 0.00 | 0.00 | 0.00 | 84 | 1019.6 |
| 20260506200717 | 54 | 82 | 5.0 | 6.0 | 0.00 | 0.00 | 0.00 | 84 | 1019.4 |
| 20260506200208 | 54 | 222 | 5.0 | 10.0 | 0.00 | 0.00 | 0.00 | 85 | 1019.4 |
| 20260506195659 | 54 | 195 | 2.0 | 2.0 | 0.00 | 0.00 | 0.00 | 85 | 1019.6 |
| 20260506195155 | 54 | 240 | 5.0 | 7.0 | 0.00 | 0.00 | 0.00 | 84 | 1019.3 |
| 20260506194653 | 55 | 238 | 3.0 | 3.0 | 0.00 | 0.00 | 0.00 | 84 | 1019.4 |
| 20260506194149 | 55 | 224 | 4.0 | 6.0 | 0.00 | 0.00 | 0.00 | 83 | 1019.4 |
| 20260506193647 | 55 | 198 | 2.0 | 3.0 | 0.00 | 0.00 | 0.00 | 84 | 1019.6 |
| 20260506193144 | 54 | 220 | 4.0 | 5.0 | 0.00 | 0.00 | 0.00 | 85 | 1019.5 |
| 20260506192640 | 54 | 282 | 5.0 | 7.0 | 0.00 | 0.00 | 0.00 | 84 | 1019.5 |
| 20260506192137 | 54 | 247 | 4.0 | 5.0 | 0.00 | 0.00 | 0.00 | 84 | 1019.4 |
| 20260506191634 | 54 | 223 | 9.0 | 10.0 | 0.00 | 0.00 | 0.00 | 84 | 1019.3 |
| 20260506191130 | 54 | 297 | 4.0 | 5.0 | 0.00 | 0.00 | 0.00 | 85 | 1019.3 |
| 20260506190627 | 54 | 175 | 4.0 | 5.0 | 0.00 | 0.00 | 0.00 | 84 | 1019.3 |
| 20260506190124 | 54 | 305 | 4.0 | 5.0 | 0.00 | 0.00 | 0.00 | 85 | 1019.3 |
| 20260506185621 | 54 | 233 | 7.0 | 9.0 | 0.00 | 0.00 | 0.00 | 84 | 1019.1 |
| 20260506185117 | 54 | 243 | 7.0 | 11.0 | 0.00 | 0.00 | 0.00 | 84 | 1019.2 |
| 20260506184615 | 53 | 355 | 1.0 | 1.0 | 0.00 | 0.00 | 0.00 | 86 | 1019.3 |
| 20260506184112 | 53 | 215 | 5.0 | 7.0 | 0.00 | 0.00 | 0.00 | 86 | 1019.4 |
| 20260506183608 | 53 | 201 | 6.0 | 7.0 | 0.00 | 0.00 | 0.00 | 86 | 1019.3 |
| 20260506183104 | 53 | 219 | 3.0 | 5.0 | 0.00 | 0.00 | 0.00 | 86 | 1019.3 |
| 20260506182601 | 53 | 231 | 3.0 | 3.0 | 0.00 | 0.00 | 0.00 | 87 | 1019.4 |
| 20260506182053 | 53 | 236 | 4.0 | 7.0 | 0.00 | 0.00 | 0.00 | 86 | 1019.3 |
| 20260506181551 | 53 | 226 | 2.0 | 3.0 | 0.00 | 0.00 | 0.00 | 87 | 1019.3 |
| 20260506181047 | 53 | 250 | 10.0 | 13.0 | 0.00 | 0.00 | 0.00 | 86 | 1019.1 |
| 20260506180544 | 53 | 197 | 4.0 | 5.0 | 0.00 | 0.00 | 0.00 | 87 | 1019.1 |
| 20260506180041 | 53 | 241 | 7.0 | 7.0 | 0.00 | 0.00 | 0.00 | 87 | 1019.1 |
| 20260506175537 | 53 | 300 | 3.0 | 3.0 | 0.00 | 0.00 | 0.00 | 87 | 1018.9 |
| 20260506175034 | 53 | 239 | 7.0 | 9.0 | 0.00 | 0.00 | 0.00 | 88 | 1019.1 |
| 20260506174533 | 53 | 258 | 4.0 | 5.0 | 0.00 | 0.00 | 0.00 | 89 | 1019.1 |
| 20260506174028 | 53 | 3 | 1.0 | 1.0 | 0.00 | 0.00 | 0.00 | 90 | 1018.9 |
| 20260506173526 | 52 | 263 | 10.0 | 11.0 | 0.00 | 0.00 | 0.00 | 89 | 1019.0 |
| 20260506173023 | 52 | 238 | 8.0 | 10.0 | 0.00 | 0.00 | 0.00 | 90 | 1018.8 |
| 20260506172520 | 52 | 240 | 5.0 | 8.0 | 0.00 | 0.00 | 0.00 | 92 | 1019.0 |
| 20260506172016 | 52 | 223 | 5.0 | 6.0 | 0.00 | 0.00 | 0.00 | 92 | 1019.1 |
| 20260506171514 | 52 | 256 | 7.0 | 9.0 | 0.00 | 0.00 | 0.00 | 93 | 1018.9 |
| 20260506171010 | 52 | 203 | 4.0 | 7.0 | 0.00 | 0.00 | 0.00 | 93 | 1019.0 |
| 20260506170507 | 51 | 256 | 6.0 | 7.0 | 0.00 | 0.00 | 0.00 | 94 | 1018.9 |
| 20260506170000 | 51 | 153 | 4.0 | 6.0 | 0.00 | 0.00 | 0.00 | 94 | 1018.9 |
| 20260506165459 | 51 | 258 | 4.0 | 5.0 | 0.00 | 0.00 | 0.00 | 95 | 1019.1 |
| 20260506164954 | 51 | 205 | 2.0 | 2.0 | 0.00 | 0.00 | 0.00 | 96 | 1018.8 |
| 20260506164451 | 51 | 216 | 2.0 | 2.0 | 0.00 | 0.00 | 0.00 | 97 | 1019.0 |
| 20260506163949 | 50 | 268 | 4.0 | 6.0 | 0.00 | 0.00 | 0.00 | 98 | 1019.0 |
| 20260506163444 | 51 | 275 | 3.0 | 5.0 | 0.00 | 0.00 | 0.00 | 98 | 1019.0 |
| 20260506162939 | 51 | 209 | 4.0 | 7.0 | 0.00 | 0.00 | 0.00 | 98 | 1018.9 |
| 20260506162437 | 51 | 257 | 2.0 | 3.0 | 0.00 | 0.00 | 0.00 | 99 | 1019.0 |
| 20260506161934 | 51 | 256 | 7.0 | 7.0 | 0.00 | 0.00 | 0.00 | 99 | 1018.9 |
| 20260506161431 | 51 | 267 | 2.0 | 2.0 | 0.00 | 0.00 | 0.00 | 99 | 1018.7 |
| 20260506160923 | 51 | 255 | 2.0 | 3.0 | 0.00 | 0.00 | 0.00 | 99 | 1018.5 |
| 20260506160420 | 51 | 23 | 5.0 | 7.0 | 0.00 | 0.00 | 0.00 | 99 | 1018.4 |
| 20260506155918 | 51 | 182 | 2.0 | 5.0 | 0.00 | 0.00 | 0.00 | 99 | 1018.4 |
| 20260506155414 | 51 | 179 | 5.0 | 6.0 | 0.00 | 0.00 | 0.00 | 99 | 1018.3 |
| 20260506153531 | 51 | 241 | 5.0 | 6.0 | 0.00 | 0.00 | 0.00 | 97 | 1018.5 |
| 20260506153028 | 51 | 239 | 4.0 | 5.0 | 0.00 | 0.00 | 0.00 | 97 | 1018.6 |
| 20260506152525 | 51 | 272 | 1.0 | 2.0 | 0.00 | 0.00 | 0.00 | 97 | 1018.6 |
| 20260506152023 | 51 | 277 | 3.0 | 3.0 | 0.00 | 0.00 | 0.00 | 96 | 1018.8 |
| 20260506151521 | 51 | 196 | 5.0 | 6.0 | 0.00 | 0.00 | 0.00 | 96 | 1018.6 |
| 20260506151018 | 51 | 167 | 3.0 | 3.0 | 0.00 | 0.00 | 0.00 | 96 | 1018.6 |
| 20260506150514 | 51 | 228 | 7.0 | 9.0 | 0.00 | 0.00 | 0.00 | 97 | 1018.8 |
| 20260506150011 | 51 | 261 | 5.0 | 6.0 | 0.00 | 0.00 | 0.00 | 97 | 1018.6 |
| 20260506145508 | 51 | 247 | 3.0 | 5.0 | 0.00 | 0.00 | 0.00 | 97 | 1018.6 |
| 20260506145006 | 51 | 218 | 3.0 | 3.0 | 0.00 | 0.00 | 0.00 | 97 | 1018.5 |
| 20260506144502 | 52 | 111 | 3.0 | 3.0 | 0.00 | 0.00 | 0.00 | 97 | 1018.0 |
| 20260506144000 | 51 | 218 | 3.0 | 5.0 | 0.00 | 0.00 | 0.00 | 97 | 1017.9 |
| 20260506143457 | 51 | 290 | 1.0 | 1.0 | 0.00 | 0.00 | 0.00 | 98 | 1018.4 |
| 20260506142955 | 51 | 232 | 4.0 | 5.0 | 0.00 | 0.00 | 0.00 | 98 | 1018.4 |
| 20260506142453 | 51 | 335 | 2.0 | 2.0 | 0.00 | 0.00 | 0.00 | 98 | 1018.5 |
| 20260506141950 | 51 | 202 | 5.0 | 8.0 | 0.00 | 0.00 | 0.00 | 98 | 1018.4 |
| 20260506141448 | 51 | 149 | 3.0 | 6.0 | 0.00 | 0.00 | 0.00 | 98 | 1018.2 |
| 20260506140946 | 51 | 215 | 3.0 | 3.0 | 0.00 | 0.00 | 0.00 | 99 | 1018.3 |
| 20260506140443 | 51 | 117 | 1.0 | 1.0 | 0.00 | 0.00 | 0.00 | 99 | 1018.2 |
| 20260506135940 | 51 | 301 | 2.0 | 2.0 | 0.00 | 0.00 | 0.00 | 99 | 1018.2 |
| 20260506135437 | 51 | 231 | 2.0 | 2.0 | 0.00 | 0.00 | 0.00 | 99 | 1018.3 |
| 20260506134933 | 51 | 73 | 2.0 | 2.0 | 0.00 | 0.00 | 0.00 | 99 | 1018.3 |
| 20260506134429 | 50 | 34 | 1.0 | 1.0 | 0.00 | 0.00 | 0.00 | 99 | 1018.1 |
| 20260506133926 | 50 | 286 | 1.0 | 1.0 | 0.00 | 0.00 | 0.00 | 99 | 1018.1 |
| 20260506133423 | 50 | 257 | 2.0 | 2.0 | 0.00 | 0.00 | 0.00 | 99 | 1018.2 |
| 20260506132920 | 50 | 207 | 5.0 | 7.0 | 0.00 | 0.00 | 0.00 | 99 | 1017.9 |
| 20260506132417 | 50 | 236 | 3.0 | 3.0 | 0.00 | 0.00 | 0.00 | 99 | 1018.0 |
| 20260506131915 | 50 | 123 | 1.0 | 2.0 | 0.00 | 0.00 | 0.00 | 99 | 1018.0 |
| 20260506131411 | 50 | 348 | 2.0 | 2.0 | 0.00 | 0.00 | 0.00 | 99 | 1018.0 |
| 20260506130908 | 50 | 287 | 1.0 | 1.0 | 0.00 | 0.00 | 0.00 | 99 | 1018.2 |
| 20260506130404 | 50 | 22 | 1.0 | 1.0 | 0.00 | 0.00 | 0.00 | 99 | 1017.7 |
| 20260506125903 | 50 | 6 | 2.0 | 2.0 | 0.00 | 0.00 | 0.00 | 99 | 1017.7 |
| 20260506125401 | 50 | 280 | 1.0 | 1.0 | 0.00 | 0.00 | 0.00 | 99 | 1017.8 |
| 20260506124859 | 50 | 248 | 2.0 | 2.0 | 0.00 | 0.00 | 0.00 | 99 | 1017.3 |
| 20260506124355 | 50 | 312 | 2.0 | 2.0 | 0.00 | 0.00 | 0.00 | 99 | 1017.6 |
| 20260506123853 | 50 | 95 | 1.0 | 1.0 | 0.00 | 0.00 | 0.00 | 99 | 1017.7 |
| 20260506123351 | 50 | 170 | 3.0 | 5.0 | 0.00 | 0.00 | 0.00 | 99 | 1017.6 |
| 20260506122848 | 50 | 246 | 4.0 | 5.0 | 0.00 | 0.00 | 0.00 | 99 | 1017.5 |
| 20260506122345 | 50 | 303 | 2.0 | 2.0 | 0.00 | 0.00 | 0.00 | 99 | 1017.6 |
| 20260506121843 | 51 | 297 | 5.0 | 7.0 | 0.00 | 0.00 | 0.00 | 99 | 1017.6 |
| 20260506121340 | 51 | 310 | 3.0 | 5.0 | 0.00 | 0.00 | 0.00 | 98 | 1017.4 |
| 20260506120837 | 51 | 204 | 4.0 | 7.0 | 0.00 | 0.00 | 0.00 | 98 | 1017.7 |
| 20260506120335 | 51 | 104 | 1.0 | 1.0 | 0.00 | 0.00 | 0.00 | 98 | 1017.5 |
| 20260506115832 | 51 | 194 | 5.0 | 6.0 | 0.00 | 0.00 | 0.00 | 98 | 1017.5 |
| 20260506115330 | 51 | 305 | 3.0 | 3.0 | 0.00 | 0.00 | 0.00 | 98 | 1017.5 |
| 20260506114828 | 51 | 43 | 2.0 | 2.0 | 0.00 | 0.00 | 0.00 | 98 | 1017.5 |
| 20260506114325 | 51 | 240 | 5.0 | 7.0 | 0.00 | 0.00 | 0.00 | 98 | 1017.6 |
| 20260506113824 | 51 | 283 | 6.0 | 7.0 | 0.00 | 0.00 | 0.00 | 98 | 1017.6 |
| 20260506113321 | 51 | 298 | 3.0 | 3.0 | 0.00 | 0.00 | 0.00 | 98 | 1017.5 |
| 20260506112817 | 51 | 215 | 4.0 | 6.0 | 0.00 | 0.00 | 0.00 | 98 | 1017.5 |
| 20260506112315 | 51 | 320 | 2.0 | 2.0 | 0.00 | 0.00 | 0.00 | 98 | 1017.2 |
| 20260506111812 | 51 | 318 | 1.0 | 1.0 | 0.00 | 0.00 | 0.00 | 98 | 1016.9 |
| 20260506111310 | 51 | 96 | 1.0 | 1.0 | 0.00 | 0.00 | 0.00 | 98 | 1017.2 |
| 20260506110807 | 51 | 328 | 1.0 | 2.0 | 0.00 | 0.00 | 0.00 | 98 | 1017.2 |
| 20260506110304 | 51 | 121 | 2.0 | 2.0 | 0.00 | 0.00 | 0.00 | 98 | 1017.2 |
| 20260506105801 | 51 | 21 | 1.0 | 1.0 | 0.00 | 0.00 | 0.00 | 98 | 1017.3 |
| 20260506105258 | 51 | 31 | 1.0 | 1.0 | 0.00 | 0.00 | 0.00 | 98 | 1017.3 |
| 20260506104755 | 51 | 241 | 3.0 | 5.0 | 0.00 | 0.00 | 0.00 | 98 | 1017.3 |
| 20260506104253 | 51 | 7 | 1.0 | 1.0 | 0.00 | 0.00 | 0.00 | 98 | 1017.1 |
| 20260506103750 | 51 | 199 | 2.0 | 2.0 | 0.00 | 0.00 | 0.00 | 98 | 1017.0 |
| 20260506103247 | 51 | 289 | 3.0 | 3.0 | 0.00 | 0.00 | 0.00 | 98 | 1017.0 |
| 20260506102745 | 51 | 219 | 3.0 | 3.0 | 0.00 | 0.00 | 0.00 | 98 | 1017.1 |
| 20260506102243 | 51 | 4 | 1.0 | 1.0 | 0.00 | 0.00 | 0.00 | 98 | 1017.0 |
| 20260506101739 | 51 | 251 | 2.0 | 2.0 | 0.00 | 0.00 | 0.00 | 98 | 1017.0 |
| 20260506101236 | 51 | 318 | 3.0 | 3.0 | 0.00 | 0.00 | 0.00 | 98 | 1016.9 |
| 20260506100734 | 51 | 143 | 2.0 | 2.0 | 0.00 | 0.00 | 0.00 | 98 | 1017.0 |
| 20260506100232 | 51 | 324 | 1.0 | 1.0 | 0.00 | 0.00 | 0.00 | 98 | 1016.9 |
| 20260506095730 | 51 | 104 | 2.0 | 2.0 | 0.00 | 0.00 | 0.00 | 98 | 1016.9 |
| 20260506095226 | 51 | 337 | 3.0 | 3.0 | 0.00 | 0.00 | 0.00 | 98 | 1016.9 |
| 20260506094723 | 51 | 262 | 2.0 | 3.0 | 0.00 | 0.00 | 0.00 | 99 | 1016.6 |
| 20260506094222 | 51 | 281 | 4.0 | 5.0 | 0.00 | 0.00 | 0.00 | 99 | 1016.6 |
| 20260506093720 | 51 | 265 | 5.0 | 6.0 | 0.00 | 0.00 | 0.00 | 99 | 1016.5 |
| 20260506093217 | 51 | 275 | 3.0 | 3.0 | 0.00 | 0.00 | 0.00 | 99 | 1016.6 |
| 20260506092715 | 50 | 237 | 4.0 | 5.0 | 0.00 | 0.00 | 0.00 | 99 | 1016.5 |
| 20260506092212 | 50 | 287 | 4.0 | 6.0 | 0.00 | 0.00 | 0.00 | 99 | 1016.5 |
| 20260506091710 | 50 | 264 | 3.0 | 3.0 | 0.00 | 0.00 | 0.00 | 99 | 1016.6 |
| 20260506091207 | 50 | 212 | 2.0 | 2.0 | 0.00 | 0.00 | 0.00 | 99 | 1016.6 |
| 20260506090704 | 50 | 322 | 2.0 | 3.0 | 0.00 | 0.00 | 0.00 | 99 | 1016.5 |
| 20260506090201 | 50 | 245 | 3.0 | 3.0 | 0.00 | 0.00 | 0.00 | 99 | 1016.6 |
| 20260506085658 | 50 | 287 | 5.0 | 6.0 | 0.00 | 0.00 | 0.00 | 99 | 1016.3 |
| 20260506085154 | 50 | 302 | 2.0 | 3.0 | 0.00 | 0.00 | 0.00 | 99 | 1016.3 |
| 20260506084651 | 50 | 170 | 3.0 | 3.0 | 0.00 | 0.00 | 0.00 | 99 | 1016.4 |
| 20260506084147 | 50 | 291 | 3.0 | 3.0 | 0.00 | 0.00 | 0.00 | 99 | 1016.2 |
| 20260506083644 | 50 | 325 | 2.0 | 2.0 | 0.00 | 0.00 | 0.00 | 99 | 1016.2 |
| 20260506083142 | 50 | 350 | 3.0 | 5.0 | 0.00 | 0.00 | 0.00 | 99 | 1016.0 |
| 20260506082639 | 50 | 337 | 2.0 | 2.0 | 0.00 | 0.00 | 0.00 | 99 | 1016.2 |
| 20260506082134 | 50 | 345 | 1.0 | 1.0 | 0.00 | 0.00 | 0.00 | 99 | 1016.1 |
| 20260506081632 | 50 | 331 | 3.0 | 3.0 | 0.00 | 0.00 | 0.00 | 98 | 1016.0 |
| 20260506081130 | 50 | 232 | 2.0 | 3.0 | 0.00 | 0.00 | 0.00 | 99 | 1016.1 |
| 20260506080627 | 51 | 210 | 2.0 | 2.0 | 0.00 | 0.00 | 0.00 | 98 | 1015.9 |
| 20260506080124 | 51 | 145 | 1.0 | 2.0 | 0.00 | 0.00 | 0.00 | 98 | 1016.0 |
| 20260506073108 | 51 | 279 | 3.0 | 3.0 | 0.00 | 0.00 | 0.00 | 96 | 1015.9 |
| 20260506072604 | 51 | 324 | 2.0 | 2.0 | 0.00 | 0.00 | 0.00 | 96 | 1015.8 |
| 20260506072103 | 51 | 314 | 2.0 | 2.0 | 0.00 | 0.00 | 0.00 | 96 | 1015.8 |
| 20260506071600 | 52 | 229 | 2.0 | 2.0 | 0.00 | 0.00 | 0.00 | 96 | 1015.8 |
| 20260506071057 | 52 | 251 | 3.0 | 3.0 | 0.00 | 0.00 | 0.00 | 96 | 1015.6 |
| 20260506070554 | 52 | 224 | 4.0 | 6.0 | 0.00 | 0.00 | 0.00 | 95 | 1015.6 |
| 20260506062033 | 53 | 217 | 3.0 | 5.0 | 0.00 | 0.00 | 0.00 | 94 | 1015.4 |
| 20260506061529 | 53 | 185 | 3.0 | 3.0 | 0.00 | 0.00 | 0.00 | 93 | 1015.3 |
| 20260506061027 | 53 | 284 | 4.0 | 5.0 | 0.00 | 0.00 | 0.00 | 93 | 1015.3 |
| 20260506060526 | 53 | 294 | 3.0 | 3.0 | 0.00 | 0.00 | 0.00 | 92 | 1015.4 |
| 20260506050955 | 55 | 295 | 6.0 | 8.0 | 0.00 | 0.00 | 0.00 | 89 | 1015.0 |
| 20260506050452 | 56 | 252 | 6.0 | 7.0 | 0.00 | 0.00 | 0.00 | 89 | 1015.0 |
| 20260506044943 | 56 | 225 | 4.0 | 5.0 | 0.00 | 0.00 | 0.00 | 88 | 1014.7 |
| 20260506044441 | 56 | 233 | 3.0 | 5.0 | 0.00 | 0.00 | 0.00 | 88 | 1014.8 |
| 20260506043937 | 57 | 229 | 5.0 | 7.0 | 0.00 | 0.00 | 0.00 | 88 | 1014.7 |
| 20260506043435 | 57 | 268 | 3.0 | 3.0 | 0.00 | 0.00 | 0.00 | 88 | 1014.7 |
| 20260506042932 | 57 | 278 | 2.0 | 2.0 | 0.00 | 0.00 | 0.00 | 87 | 1014.5 |
| 20260506042431 | 57 | 252 | 2.0 | 2.0 | 0.00 | 0.00 | 0.00 | 87 | 1014.7 |
| 20260506041929 | 57 | 327 | 5.0 | 7.0 | 0.00 | 0.00 | 0.00 | 87 | 1014.8 |
| 20260506041427 | 57 | 340 | 0.0 | 1.0 | 0.00 | 0.00 | 0.00 | 88 | 1014.8 |
| 20260506040924 | 58 | 72 | 2.0 | 2.0 | 0.00 | 0.00 | 0.00 | 87 | 1014.5 |
| 20260506040421 | 58 | 225 | 3.0 | 3.0 | 0.00 | 0.00 | 0.00 | 87 | 1014.6 |
| 20260506035917 | 58 | 196 | 1.0 | 2.0 | 0.00 | 0.00 | 0.00 | 87 | 1014.6 |
| 20260506035415 | 58 | 30 | 1.0 | 1.0 | 0.00 | 0.00 | 0.00 | 87 | 1014.4 |
| 20260506034911 | 59 | 334 | 1.0 | 1.0 | 0.00 | 0.00 | 0.00 | 86 | 1014.3 |
| 20260506034409 | 59 | 217 | 1.0 | 2.0 | 0.00 | 0.00 | 0.00 | 86 | 1014.2 |
| 20260506033906 | 59 | 285 | 2.0 | 2.0 | 0.00 | 0.00 | 0.00 | 86 | 1014.3 |
| 20260506033403 | 59 | 86 | 1.0 | 1.0 | 0.00 | 0.00 | 0.00 | 85 | 1014.2 |
| 20260506032859 | 59 | 143 | 2.0 | 2.0 | 0.00 | 0.00 | 0.00 | 85 | 1014.2 |
| 20260506032356 | 60 | 359 | 1.0 | 1.0 | 0.00 | 0.00 | 0.00 | 84 | 1014.3 |
| 20260506031853 | 60 | 337 | 1.0 | 1.0 | 0.00 | 0.00 | 0.00 | 83 | 1014.0 |
| 20260506031350 | 60 | 29 | 0.0 | 0.0 | 0.00 | 0.00 | 0.00 | 83 | 1014.2 |
| 20260506030848 | 61 | 16 | 1.0 | 1.0 | 0.00 | 0.00 | 0.00 | 82 | 1013.9 |
| 20260506030346 | 61 | 23 | 0.0 | 1.0 | 0.00 | 0.00 | 0.00 | 82 | 1014.2 |
| 20260506025843 | 61 | 227 | 1.0 | 2.0 | 0.00 | 0.00 | 0.00 | 81 | 1014.0 |
| 20260506025339 | 62 | 27 | 1.0 | 1.0 | 0.00 | 0.00 | 0.00 | 80 | 1014.1 |
| 20260506024836 | 62 | 352 | 1.0 | 1.0 | 0.00 | 0.00 | 0.00 | 80 | 1014.0 |
| 20260506024333 | 63 | 319 | 2.0 | 2.0 | 0.00 | 0.00 | 0.00 | 78 | 1014.0 |
| 20260506023829 | 63 | 218 | 2.0 | 3.0 | 0.00 | 0.00 | 0.00 | 78 | 1013.8 |
| 20260506023326 | 64 | 332 | 1.0 | 1.0 | 0.00 | 0.00 | 0.00 | 77 | 1013.9 |
| 20260506022823 | 65 | 312 | 1.0 | 1.0 | 0.00 | 0.00 | 0.00 | 76 | 1013.9 |
| 20260506022320 | 64 | 200 | 2.0 | 2.0 | 0.00 | 0.00 | 0.00 | 75 | 1013.7 |
| 20260506021819 | 65 | 102 | 1.0 | 2.0 | 0.00 | 0.00 | 0.00 | 76 | 1014.0 |
| 20260506021315 | 65 | 331 | 1.0 | 2.0 | 0.00 | 0.00 | 0.00 | 74 | 1013.8 |
| 20260506020812 | 65 | 349 | 2.0 | 2.0 | 0.00 | 0.00 | 0.00 | 75 | 1014.0 |
| 20260506020310 | 66 | 70 | 1.0 | 1.0 | 0.00 | 0.00 | 0.00 | 74 | 1013.8 |
| 20260506015807 | 67 | 15 | 0.0 | 1.0 | 0.00 | 0.00 | 0.00 | 72 | 1014.0 |
| 20260506015306 | 66 | 23 | 1.0 | 1.0 | 0.00 | 0.00 | 0.00 | 74 | 1013.7 |
| 20260506014801 | 67 | 193 | 4.0 | 6.0 | 0.00 | 0.00 | 0.00 | 72 | 1013.7 |
| 20260506014258 | 68 | 141 | 1.0 | 1.0 | 0.00 | 0.00 | 0.00 | 72 | 1013.8 |
| 20260506013755 | 67 | 190 | 3.0 | 5.0 | 0.00 | 0.00 | 0.00 | 73 | 1013.7 |
| 20260506013252 | 67 | 339 | 3.0 | 3.0 | 0.00 | 0.00 | 0.00 | 72 | 1013.7 |
| 20260506012748 | 68 | 281 | 2.0 | 2.0 | 0.00 | 0.00 | 0.00 | 71 | 1013.7 |
| 20260506012245 | 67 | 336 | 1.0 | 1.0 | 0.00 | 0.00 | 0.00 | 71 | 1013.8 |
| 20260506011743 | 67 | 355 | 1.0 | 2.0 | 0.00 | 0.00 | 0.00 | 71 | 1013.8 |
| 20260506011239 | 66 | 242 | 3.0 | 3.0 | 0.00 | 0.00 | 0.00 | 73 | 1013.7 |
| 20260506010737 | 68 | 228 | 3.0 | 3.0 | 0.00 | 0.00 | 0.00 | 70 | 1013.6 |
| 20260506010234 | 66 | 310 | 2.0 | 2.0 | 0.00 | 0.00 | 0.00 | 71 | 1013.8 |
| 20260506005731 | 66 | 247 | 5.0 | 5.0 | 0.00 | 0.00 | 0.00 | 71 | 1013.9 |
| 20260506005228 | 66 | 268 | 3.0 | 3.0 | 0.00 | 0.00 | 0.00 | 71 | 1013.6 |
| 20260506004724 | 67 | 279 | 7.0 | 7.0 | 0.00 | 0.00 | 0.00 | 70 | 1013.9 |
| 20260506004222 | 69 | 252 | 4.0 | 5.0 | 0.00 | 0.00 | 0.00 | 68 | 1013.9 |